Date String (YYYY-MM-DD hh:mm:ss) UTC,Instrument flags,Ambient pressure (hPa),Sample flow (lpm),Bypass flow (lpm),Sample temperature (°C),Ambient temperature (°C),ASC tube jacket temperature (°C),LED temperature (°C),Box temperature (°C),Sample RH (%),Span deviation,Mass concentration (μg/m³),Mass concentration (μg/m³),Mass concentration (μg/m³)
DateTimeUTC,F1_M11,P_M11,Q1_M11,Q2_M11,T1_M11,T2_M11,T3_M11,T4_M11,T5_M11,U1_M11,ZSPAN_M11,X0_M11,X2_M11,X1_M11
2023-02-19 05:00:00,,0818.1,5.01,0.00,22.2,20.5,00.0,31.1,23.9,06.2,0000.0,0009.70,0002.88,0001.64
2023-02-19 05:01:00,,0818.2,5.00,0.00,22.2,20.5,00.0,31.1,23.9,06.4,0000.0,0009.75,0002.95,0001.65
2023-02-19 05:02:00,,0818.0,4.99,0.00,22.2,20.5,00.0,31.1,23.9,06.4,0000.0,0009.14,0002.94,0001.66
2023-02-19 05:03:00,,0818.0,5.01,0.00,22.2,20.5,00.0,31.1,23.9,06.2,0000.0,0008.54,0002.95,0001.66
2023-02-19 05:04:00,,0818.1,4.99,0.00,22.1,20.4,00.0,31.1,23.9,06.3,0000.0,0008.06,0002.93,0001.67
2023-02-19 05:05:00,,0817.9,5.00,0.00,22.1,20.5,00.0,31.1,23.9,06.4,0000.0,0008.05,0002.94,0001.68
2023-02-19 05:06:00,,0818.0,5.00,0.00,22.1,20.4,00.0,31.1,23.9,06.1,0000.0,0008.07,0002.99,0001.69
2023-02-19 05:07:00,,0817.9,5.00,0.00,22.1,20.4,00.0,31.1,23.9,06.1,0000.0,0007.57,0002.95,0001.68
2023-02-19 05:08:00,,0817.8,5.01,0.00,22.1,20.4,00.0,31.0,23.8,05.9,0000.0,0006.93,0002.97,0001.69
2023-02-19 05:09:00,,0818.0,5.00,0.00,22.1,20.3,00.0,31.0,23.8,05.9,0000.0,0007.02,0002.97,0001.69
2023-02-19 05:10:00,,0818.0,5.01,0.00,22.0,20.2,00.0,31.0,23.7,06.0,0000.0,0007.61,0002.93,0001.68
2023-02-19 05:11:00,,0818.0,5.02,0.00,22.0,20.2,00.0,31.0,23.7,06.1,0000.0,0007.82,0002.96,0001.67
2023-02-19 05:12:00,,0818.2,5.01,0.00,22.0,20.2,00.0,31.0,23.7,06.0,0000.0,0007.87,0002.95,0001.68
2023-02-19 05:13:00,,0818.2,5.01,0.00,22.0,20.6,00.0,30.9,23.8,05.7,0000.0,0007.57,0002.88,0001.67
2023-02-19 05:14:00,,0818.3,4.98,0.00,22.1,21.9,00.0,30.9,24.1,05.4,0000.0,0007.52,0002.88,0001.66
2023-02-19 05:15:00,,0818.2,5.04,0.00,22.3,22.9,00.0,30.9,24.3,05.6,0000.0,0007.46,0002.88,0001.64
2023-02-19 05:16:00,,0818.1,5.04,0.00,22.4,22.8,00.0,31.0,24.4,05.5,0000.0,0007.69,0002.80,0001.62
2023-02-19 05:17:00,,0818.0,5.01,0.00,22.4,22.2,00.0,31.0,24.3,05.1,0000.0,0007.61,0002.67,0001.59
2023-02-19 05:18:00,,0818.0,4.98,0.00,22.3,21.8,00.0,31.1,24.1,05.0,0000.0,0008.01,0002.72,0001.57
2023-02-19 05:19:00,,0818.0,4.97,0.00,22.3,21.4,00.0,31.1,24.0,04.7,0000.0,0008.20,0002.73,0001.55
2023-02-19 05:20:00,,0818.0,5.03,0.00,22.3,21.1,00.0,31.1,23.9,04.8,0000.0,0008.20,0002.73,0001.53
2023-02-19 05:21:00,,0818.0,5.01,0.00,22.2,20.8,00.0,31.1,23.8,05.0,0000.0,0007.45,0002.70,0001.53
2023-02-19 05:22:00,,0817.9,5.00,0.00,22.2,20.5,00.0,31.1,23.7,05.2,0000.0,0007.11,0002.66,0001.50
2023-02-19 05:23:00,,0818.0,5.00,0.00,22.1,20.4,00.0,31.1,23.7,05.2,0000.0,0006.84,0002.59,0001.48
2023-02-19 05:24:00,,0818.0,5.00,0.00,22.1,20.3,00.0,31.1,23.6,05.4,0000.0,0007.10,0002.55,0001.46
2023-02-19 05:25:00,,0818.0,5.01,0.00,22.0,20.1,00.0,31.1,23.5,05.4,0000.0,0007.08,0002.53,0001.46
2023-02-19 05:26:00,,0818.0,5.00,0.00,22.0,20.0,00.0,31.0,23.5,05.4,0000.0,0007.09,0002.55,0001.44
2023-02-19 05:27:00,,0818.0,5.01,0.00,21.9,19.9,00.0,31.0,23.5,05.5,0000.0,0006.44,0002.61,0001.45
2023-02-19 05:28:00,,0817.9,5.01,0.00,21.9,19.9,00.0,31.0,23.5,05.2,0000.0,0006.36,0002.64,0001.46
2023-02-19 05:29:00,,0818.0,5.00,0.00,21.9,19.9,00.0,31.0,23.4,05.3,0000.0,0005.62,0002.59,0001.46
2023-02-19 05:30:00,,0817.9,5.02,0.00,21.8,19.9,00.0,31.0,23.4,05.3,0000.0,0004.92,0002.48,0001.46
2023-02-19 05:31:00,,0818.0,5.01,0.00,21.8,19.9,00.0,30.9,23.4,05.3,0000.0,0004.95,0002.51,0001.46
2023-02-19 05:32:00,,0818.0,5.01,0.00,21.8,19.9,00.0,30.9,23.4,05.5,0000.0,0004.89,0002.52,0001.46
2023-02-19 05:33:00,,0818.0,5.01,0.00,21.8,20.1,00.0,30.9,23.4,06.0,0000.0,0005.07,0002.56,0001.46
2023-02-19 05:34:00,,0818.0,4.98,0.00,21.9,21.4,00.0,30.8,23.8,06.3,0000.0,0005.22,0002.60,0001.46
2023-02-19 05:35:00,,0818.0,5.03,0.00,22.0,22.6,00.0,30.8,24.1,05.9,0000.0,0004.99,0002.62,0001.47
2023-02-19 05:36:00,,0818.0,5.01,0.00,22.2,22.9,00.0,30.8,24.2,05.8,0000.0,0004.96,0002.64,0001.47
2023-02-19 05:37:00,,0818.0,5.02,0.00,22.2,22.4,00.0,30.9,24.1,06.3,0000.0,0004.82,0002.60,0001.48
2023-02-19 05:38:00,,0818.0,5.01,0.00,22.2,21.9,00.0,30.9,24.1,06.1,0000.0,0005.09,0002.59,0001.49
2023-02-19 05:39:00,,0818.0,4.99,0.00,22.2,21.5,00.0,31.0,24.0,06.0,0000.0,0006.04,0002.64,0001.49
2023-02-19 05:40:00,,0818.0,4.98,0.00,22.2,21.2,00.0,31.0,23.9,05.5,0000.0,0005.99,0002.63,0001.50
2023-02-19 05:41:00,,0818.0,5.01,0.00,22.2,21.0,00.0,31.0,23.9,06.0,0000.0,0006.20,0002.71,0001.51
2023-02-19 05:42:00,,0818.0,4.99,0.00,22.2,20.8,00.0,31.0,23.9,06.3,0000.0,0006.24,0002.70,0001.52
2023-02-19 05:43:00,,0818.0,5.00,0.00,22.1,20.6,00.0,31.0,23.8,06.4,0000.0,0006.38,0002.72,0001.52
2023-02-19 05:44:00,,0817.9,4.99,0.00,22.1,20.5,00.0,31.0,23.7,06.1,0000.0,0007.25,0002.69,0001.52
2023-02-19 05:45:00,,0817.9,5.00,0.00,22.1,20.3,00.0,31.0,23.7,05.5,0000.0,0007.62,0002.65,0001.52
2023-02-19 05:46:00,,0817.9,5.00,0.00,22.0,20.2,00.0,31.0,23.6,05.4,0000.0,0007.64,0002.62,0001.51
2023-02-19 05:47:00,,0818.0,5.00,0.00,22.0,20.1,00.0,31.0,23.6,05.3,0000.0,0007.65,0002.62,0001.50
2023-02-19 05:48:00,,0818.0,5.01,0.00,22.0,20.1,00.0,31.0,23.6,05.4,0000.0,0007.68,0002.60,0001.50
2023-02-19 05:49:00,,0818.0,5.01,0.00,21.9,20.1,00.0,31.0,23.5,05.5,0000.0,0007.49,0002.53,0001.49
2023-02-19 05:50:00,,0818.0,5.00,0.00,21.9,20.0,00.0,30.9,23.5,05.3,0000.0,0006.67,0002.49,0001.49
2023-02-19 05:51:00,,0817.9,4.99,0.00,21.9,19.9,00.0,30.9,23.5,05.6,0000.0,0006.80,0002.49,0001.48
2023-02-19 05:52:00,,0818.0,4.99,0.00,21.8,19.9,00.0,30.9,23.4,05.6,0000.0,0006.83,0002.47,0001.47
2023-02-19 05:53:00,,0818.0,5.00,0.00,21.8,19.9,00.0,30.9,23.4,05.4,0000.0,0006.74,0002.41,0001.46
2023-02-19 05:54:00,,0818.0,5.00,0.00,21.8,19.9,00.0,30.9,23.4,05.5,0000.0,0006.50,0002.32,0001.44
2023-02-19 05:55:00,,0818.0,5.02,0.00,21.8,20.8,00.0,30.8,23.6,05.6,0000.0,0005.39,0002.27,0001.44
2023-02-19 05:56:00,,0818.0,5.00,0.00,22.0,22.1,00.0,30.7,23.9,05.5,0000.0,0004.95,0002.29,0001.46
2023-02-19 05:57:00,,0818.0,5.02,0.00,22.1,22.7,00.0,30.7,24.1,05.2,0000.0,0005.07,0002.33,0001.46
2023-02-19 05:58:00,,0818.0,4.97,0.00,22.1,22.1,00.0,30.8,24.0,05.3,0000.0,0004.90,0002.30,0001.44
2023-02-19 05:59:00,,0818.1,5.01,0.00,22.1,21.7,00.0,30.9,24.0,05.4,0000.0,0004.87,0002.32,0001.44
